Regional Weather Roundup
Issued by NWS State College, PA

Home | Current Version | Previous Version | Graphics & Text | Print | Product List | Glossary Off
Versions: 1 2 3 4 5 6 7 8 9 10 11 12 13 14 15 16 17 18 19 20 21 22 23 24 25 26 27 28 29 30 31 32 33 34 35 36 37 38 39 40 41 42 43 44 45 46 47 48 49 50

528
ASUS41 KCTP 090203
RWRCTP

REGIONAL WEATHER ROUNDUP
NATIONAL WEATHER SERVICE STATE COLLEGE PA
900 PM EST MON FEB 08 2016

Note: "fair" indicates few or no clouds below 12,000 feet with no
significant weather and/or obstructions to visibility.

* = STATION THAT DOES NOT REPORT PRECIPITATION /E.G. RAIN...SNOW...ETC/
    THUNDER OR FOG.

PAZ002>004-007>009-013>016-020>023-029>032-090300-
WESTERN PENNSYLVANIA

CITY           SKY/WX    TMP DP  RH WIND       PRES   REMARKS
ERIE           CLOUDY    34  31  88 W6        29.56S
MEADVILLE      CLOUDY    33  29  85 W8        29.55S
FRANKLIN*      CLOUDY    32  28  86 SW7       29.57S
NEW CASTLE     CLOUDY    33  30  88 W6        29.60S
BEAVER COUNTY  CLOUDY    34  32  93 W5        29.59S
BUTLER*        CLOUDY    34  28  80 W7        29.63S
PITTSBURGH INT CLOUDY    34  31  88 SW5       29.59F
PITTSBURGH     CLOUDY    36  30  79 W7        29.60S
INDIANA*       CLOUDY    34  34 100 S6        29.61F
LATROBE        CLOUDY    36  34  93 SW12      29.61S
WASHINGTON CO* CLOUDY    34  28  80 S3        29.61S
$$

PAZ004>006-010>012-017>019-024>028-033>037-041-042-045-046-049>053-090300-
CENTRAL PENNSYLVANIA

CITY           SKY/WX    TMP DP  RH WIND       PRES   REMARKS
BRADFORD       CLOUDY    31  25  78 SE9       29.54F
DUBOIS         LGT SNOW  31  29  92 SE7       29.55F FOG
CLEARFIELD     CLOUDY    34  25  69 SE5       29.60F
JOHNSTOWN      CLOUDY    32  22  66 SE6       29.55F
ALTOONA        CLOUDY    35  23  61 S9        29.60F
STATE COLLEGE  CLOUDY    34  28  80 CALM      29.63F
WILLIAMSPORT   LGT SNOW  38  30  73 NE3       29.67S
SELINSGROVE    LGT SNOW  34  31  88 SE3       29.69S FOG
FT INDIANTOWN  LGT SNOW  32  32 100 NE1       29.70S FOG
CAPITAL CITY   LGT RAIN  36  31  82 E10       29.70S
HARRISBURG     LGT SNOW  35  31  85 SE10      29.70S FOG
YORK           LGT RAIN  36  32  85 SE6       29.69S
$$

PAZ038>040-043-044-047-048-054-055-060>062-067>071-090300-
EASTERN PENNSYLVANIA

CITY           SKY/WX    TMP DP  RH WIND       PRES   REMARKS
SCRANTON       CLOUDY    34  17  50 SE8G17    29.67S
MOUNT POCONO   CLOUDY    27  13  55 E9        29.66S
ALLENTOWN      CLOUDY    37  20  50 E12       29.73S
QUAKERTOWN*    CLOUDY    34  25  69 SE8       29.73F
READING        LGT SNOW  35  29  78 SE8       29.71R
LANCASTER      LGT SNOW  33  32  96 SE7       29.71S FOG
COATESVILLE    LGT SNOW  32  32 100 SE6       29.72S
POTTSTOWN      CLOUDY    35  24  64 VRB5      29.74F
BLUE BELL        N/A     34  23  64 E5        29.73F
DOYLESTOWN     CLOUDY    32  22  66 CALM      29.74S
WILLOW GROVE   NOT AVBL
NORTH PHILA    CLOUDY    36  24  62 SE10      29.78S
PHILADELPHIA   LGT RAIN  36  24  62 SE12      29.77S
$$




USA.gov is the U.S. government's official web portal to all federal, state and local government web resources and services.